When you browse on this site, cookies collect data to enhance your experience and personalize the content and advertising you see.
Visit our Privacy Policy to learn more. By continuing to use the site, you agree to this use of cookies and data.
  • In Deutschland
  • Länderverzeichnis
  • Für 7 Tage
  • Wassertemperatur
  • Satellitenkarten
  • Wetterkarte
  • Widgets
  • user-avatar
    Anmelden

    Stündliche Wetter Glinki

    Heute, 19 Februar, Dienstag

    Zeit Temperatur Niederschläge Wind Luftdruck Luftfeuchtigkeit
    00:00 -5°C° 0 mm 4 m/S 761 mmHg 75%
    01:00 -5°C° 0 mm 4 m/S 761 mmHg 74%
    02:00 -5°C° 0 mm 4 m/S 762 mmHg 73%
    03:00 -5°C° 0 mm 3 m/S 761 mmHg 71%
    04:00 -5°C° 0 mm 3 m/S 762 mmHg 71%
    05:00 -6°C° 0 mm 3 m/S 762 mmHg 72%
    06:00 -7°C° 0 mm 4 m/S 763 mmHg 72%
    07:00 -7°C° 0 mm 4 m/S 763 mmHg 73%
    08:00 -7°C° 0 mm 4 m/S 764 mmHg 73%
    09:00 -7°C° 0 mm 4 m/S 764 mmHg 74%
    10:00 -5°C° 0 mm 3 m/S 765 mmHg 70%
    11:00 -4°C° 0 mm 3 m/S 765 mmHg 66%
    12:00 -4°C° 0 mm 3 m/S 765 mmHg 63%
    13:00 -2°C° 0 mm 2 m/S 765 mmHg 62%
    14:00 -2°C° 0 mm 2 m/S 766 mmHg 61%
    15:00 -1°C° 0 mm 2 m/S 765 mmHg 59%
    16:00 -2°C° 0 mm 2 m/S 765 mmHg 64%
    17:00 -1°C° 0 mm 1 m/S 765 mmHg 68%
    18:00 -1°C° 0 mm 1 m/S 765 mmHg 73%
    19:00 -2°C° 0 mm 1 m/S 765 mmHg 74%
    20:00 -2°C° 0 mm 1 m/S 765 mmHg 74%
    21:00 -3°C° 0 mm 0 m/S 765 mmHg 75%
    22:00 -2°C° 0 mm 1 m/S 765 mmHg 73%
    23:00 -2°C° 0 mm 1 m/S 765 mmHg 72%

    Morgen, 20 Februar, Mittwoch

    Zeit Temperatur Niederschläge Wind Luftdruck Luftfeuchtigkeit
    00:00 -2°C° 0 mm 1 m/S 765 mmHg 71%
    01:00 -2°C° 0 mm 1 m/S 764 mmHg 70%
    02:00 -2°C° 0 mm 1 m/S 764 mmHg 69%
    03:00 -2°C° 0 mm 1 m/S 764 mmHg 68%
    04:00 -3°C° 0 mm 2 m/S 763 mmHg 67%
    05:00 -3°C° 0 mm 2 m/S 763 mmHg 66%
    06:00 -3°C° 0 mm 2 m/S 762 mmHg 65%
    07:00 -3°C° 0 mm 2 m/S 762 mmHg 63%
    08:00 -2°C° 0 mm 2 m/S 762 mmHg 62%
    09:00 -2°C° 0 mm 3 m/S 761 mmHg 61%
    10:00 0°C° 0 mm 3 m/S 761 mmHg 59%
    11:00 +1°C° 0 mm 3 m/S 761 mmHg 57%
    12:00 +1°C° 0 mm 4 m/S 760 mmHg 56%
    13:00 +1°C° 0 mm 4 m/S 760 mmHg 59%
    14:00 +3°C° 0 mm 4 m/S 759 mmHg 63%
    15:00 +2°C° 0 mm 5 m/S 759 mmHg 66%
    16:00 +1°C° 0 mm 4 m/S 759 mmHg 70%
    17:00 +1°C° 0 mm 4 m/S 758 mmHg 74%
    18:00 +1°C° 0 mm 3 m/S 758 mmHg 78%
    19:00 0°C° 0 mm 3 m/S 758 mmHg 78%
    20:00 0°C° 0 mm 3 m/S 758 mmHg 79%
    21:00 0°C° 0 mm 3 m/S 758 mmHg 80%
    22:00 0°C° 0 mm 3 m/S 757 mmHg 81%
    23:00 0°C° 0 mm 3 m/S 757 mmHg 82%

    übermorgen, 21 Februar, Donnerstag

    Zeit Temperatur Niederschläge Wind Luftdruck Luftfeuchtigkeit
    00:00 0°C° 0 mm 3 m/S 757 mmHg 82%
    01:00 -1°C° 0 mm 4 m/S 756 mmHg 85%
    02:00 0°C° 0 mm 4 m/S 756 mmHg 88%
    03:00 0°C° 0 mm 4 m/S 756 mmHg 91%
    04:00 0°C° 0.1 mm 4 m/S 756 mmHg 92%
    05:00 0°C° 0.1 mm 5 m/S 755 mmHg 93%
    06:00 +1°C° 0.1 mm 5 m/S 755 mmHg 94%
    07:00 +1°C° 0.3 mm 5 m/S 755 mmHg 95%
    08:00 +1°C° 0.3 mm 5 m/S 755 mmHg 95%
    09:00 +1°C° 0.3 mm 5 m/S 755 mmHg 96%
    10:00 +1°C° 0.2 mm 5 m/S 754 mmHg 92%
    11:00 +2°C° 0.2 mm 5 m/S 754 mmHg 89%
    12:00 +2°C° 0.2 mm 5 m/S 754 mmHg 86%
    13:00 +3°C° 0 mm 5 m/S 753 mmHg 78%
    14:00 +3°C° 0 mm 6 m/S 753 mmHg 70%
    15:00 +4°C° 0 mm 7 m/S 753 mmHg 63%
    16:00 +3°C° 0.2 mm 7 m/S 753 mmHg 66%
    17:00 +2°C° 0.2 mm 7 m/S 753 mmHg 70%
    18:00 +1°C° 0.2 mm 6 m/S 753 mmHg 73%
    19:00 -1°C° 0 mm 7 m/S 754 mmHg 71%
    20:00 -2°C° 0 mm 7 m/S 754 mmHg 68%
    21:00 -4°C° 0 mm 7 m/S 755 mmHg 66%
    22:00 -4°C° 0 mm 7 m/S 755 mmHg 66%
    23:00 -4°C° 0 mm 6 m/S 756 mmHg 65%

    22 Februar, Freitag

    Zeit Temperatur Niederschläge Wind Luftdruck Luftfeuchtigkeit
    00:00 -4°C° 0 mm 6 m/S 756 mmHg 65%
    01:00 -5°C° 0 mm 6 m/S 756 mmHg 64%
    02:00 -5°C° 0 mm 6 m/S 756 mmHg 63%
    03:00 -5°C° 0 mm 5 m/S 756 mmHg 61%
    04:00 -5°C° 0 mm 5 m/S 756 mmHg 61%
    05:00 -5°C° 0 mm 5 m/S 756 mmHg 60%
    06:00 -5°C° 0 mm 5 m/S 756 mmHg 59%
    07:00 -5°C° 0 mm 5 m/S 756 mmHg 59%
    08:00 -5°C° 0 mm 5 m/S 756 mmHg 58%
    09:00 -5°C° 0 mm 5 m/S 757 mmHg 57%
    10:00 -4°C° 0 mm 5 m/S 756 mmHg 56%
    11:00 -4°C° 0 mm 5 m/S 756 mmHg 54%
    12:00 -2°C° 0 mm 5 m/S 756 mmHg 53%
    13:00 -3°C° 0.1 mm 4 m/S 756 mmHg 60%
    14:00 -2°C° 0.1 mm 3 m/S 755 mmHg 67%
    15:00 -2°C° 0.1 mm 3 m/S 755 mmHg 74%
    16:00 -4°C° 0.6 mm 3 m/S 755 mmHg 79%
    17:00 -4°C° 0.6 mm 3 m/S 755 mmHg 84%
    18:00 -5°C° 0.6 mm 3 m/S 755 mmHg 89%
    19:00 -5°C° 0.6 mm 4 m/S 755 mmHg 89%
    20:00 -7°C° 0.6 mm 5 m/S 756 mmHg 88%
    21:00 -9°C° 0.6 mm 7 m/S 756 mmHg 88%
    22:00 -11°C° 0.5 mm 7 m/S 756 mmHg 87%
    23:00 -12°C° 0.5 mm 7 m/S 757 mmHg 87%

    23 Februar, Samstag

    Zeit Temperatur Niederschläge Wind Luftdruck Luftfeuchtigkeit
    00:00 -12°C° 0.5 mm 7 m/S 757 mmHg 86%
    01:00 -13°C° 0.3 mm 7 m/S 758 mmHg 86%
    02:00 -12°C° 0.3 mm 6 m/S 758 mmHg 85%
    03:00 -12°C° 0.3 mm 6 m/S 758 mmHg 84%
    04:00 -12°C° 0.2 mm 6 m/S 758 mmHg 84%
    05:00 -12°C° 0.2 mm 6 m/S 759 mmHg 84%
    06:00 -14°C° 0.2 mm 6 m/S 759 mmHg 83%
    07:00 -14°C° 0.1 mm 6 m/S 759 mmHg 83%
    08:00 -12°C° 0.1 mm 6 m/S 760 mmHg 82%
    09:00 -12°C° 0.1 mm 6 m/S 760 mmHg 82%
    10:00 -12°C° 0.1 mm 6 m/S 761 mmHg 81%
    11:00 -11°C° 0.1 mm 6 m/S 761 mmHg 80%
    12:00 -11°C° 0.1 mm 6 m/S 761 mmHg 79%
    13:00 -11°C° 0 mm 6 m/S 761 mmHg 79%
    14:00 -10°C° 0 mm 6 m/S 761 mmHg 79%
    15:00 -10°C° 0 mm 5 m/S 762 mmHg 79%
    16:00 -11°C° 0 mm 5 m/S 762 mmHg 80%
    17:00 -11°C° 0 mm 5 m/S 762 mmHg 81%
    18:00 -11°C° 0 mm 5 m/S 762 mmHg 82%
    19:00 -12°C° 0 mm 5 m/S 763 mmHg 83%
    20:00 -11°C° 0 mm 4 m/S 763 mmHg 84%
    21:00 -11°C° 0 mm 4 m/S 763 mmHg 85%
    22:00 -12°C° 0 mm 4 m/S 763 mmHg 86%
    23:00 -12°C° 0 mm 4 m/S 763 mmHg 87%

    24 Februar, Sonntag

    Zeit Temperatur Niederschläge Wind Luftdruck Luftfeuchtigkeit
    00:00 -12°C° 0 mm 4 m/S 763 mmHg 87%
    01:00 -12°C° 0 mm 4 m/S 763 mmHg 87%
    02:00 -12°C° 0 mm 3 m/S 763 mmHg 88%
    03:00 -12°C° 0 mm 3 m/S 763 mmHg 88%
    04:00 -12°C° 0 mm 3 m/S 763 mmHg 88%
    05:00 -12°C° 0 mm 3 m/S 763 mmHg 88%
    06:00 -13°C° 0 mm 3 m/S 763 mmHg 88%
    07:00 -12°C° 0 mm 3 m/S 763 mmHg 88%
    08:00 -12°C° 0 mm 3 m/S 763 mmHg 87%
    09:00 -12°C° 0 mm 3 m/S 764 mmHg 86%
    10:00 -10°C° 0 mm 3 m/S 764 mmHg 85%
    11:00 -9°C° 0 mm 3 m/S 764 mmHg 84%
    12:00 -8°C° 0 mm 3 m/S 764 mmHg 82%
    13:00 -8°C° 0 mm 3 m/S 764 mmHg 82%
    14:00 -7°C° 0 mm 3 m/S 764 mmHg 82%
    15:00 -7°C° 0 mm 3 m/S 763 mmHg 82%
    16:00 -7°C° 0 mm 3 m/S 763 mmHg 83%
    17:00 -7°C° 0 mm 2 m/S 764 mmHg 85%
    18:00 -7°C° 0 mm 2 m/S 764 mmHg 87%
    19:00 -7°C° 0 mm 2 m/S 764 mmHg 87%
    20:00 -8°C° 0 mm 3 m/S 764 mmHg 88%
    21:00 -9°C° 0 mm 3 m/S 764 mmHg 88%
    22:00 -8°C° 0.1 mm 3 m/S 764 mmHg 89%
    23:00 -8°C° 0.1 mm 3 m/S 764 mmHg 89%
    Mehr zeigen